QPF
0.00 0.00 0.00 0.01 0.00 0.02 0.02 0.08 0.07 0.06 0.03 0.05 0.01 0.01 0.00 0.00 0.00 0.00 0.00 0.00 0.00 0.00 0.00 0.00 0.00 0.00 0.00 0.00 0.00 0.00 0.00 0.00 0.00 0.00 0.00 0.00 0.00 0.00 0.00 0.00 0.00 0.00 0.00 0.00
0.00 0.00 0.00 0.01 0.00 0.02 0.06 0.06 0.03 0.11 0.08 0.04 0.01 0.01 0.00 0.00 0.00 0.00 0.00 0.00 0.00 0.00 0.00 0.00 0.00 0.00 0.00 0.00 0.00 0.00 0.00 0.00 0.00 0.00 0.00 0.00 0.00 0.00 0.00 0.00 0.00 0.00 0.00 0.00
0.00 0.01 0.01 0.01 0.00 0.02 0.05 0.06 0.05 0.06 0.08 0.03 0.02 0.03 0.02 0.00 0.00 0.00 0.00 0.00 0.00 0.00 0.00 0.00 0.00 0.00 0.00 0.00 0.00 0.00 0.00 0.00 0.00 0.00 0.00 0.00 0.00 0.00 0.00 0.00 0.00 0.00 0.00 0.00
0.00 0.00 0.00 0.01 0.00 0.02 0.03 0.03 0.03 0.05 0.06 0.03 0.01 0.02 0.05 0.02 0.00 0.00 0.00 0.00 0.00 0.00 0.00 0.00 0.00 0.00 0.00 0.00 0.00 0.00 0.00 0.00 0.00 0.00 0.00 0.00 0.00 0.00 0.00 0.00 0.00 0.00 0.00 0.00
0.01 0.02 0.01 0.01 0.02 0.02 0.03 0.03 0.01 0.01 0.02 0.04 0.04 0.02 0.01 0.04 0.02 0.01 0.01 0.00 0.00 0.00 0.00 0.00 0.00 0.00 0.00 0.00 0.00 0.00 0.00 0.00 0.00 0.00 0.00 0.00 0.00 0.00 0.00 0.00 0.00 0.00 0.00 0.00
0.00 0.00 0.00 0.02 0.04 0.05 0.03 0.02 0.01 0.05 0.03 0.03 0.04 0.04 0.03 0.01 0.02 0.01 0.00 0.00 0.02 0.01 0.00 0.00 0.00 0.00 0.00 0.00 0.00 0.01 0.00 0.00 0.00 0.00 0.00 0.00 0.00 0.00 0.00 0.00 0.00 0.00 0.00 0.00
0.02 0.01 0.01 0.02 0.04 0.04 0.03 0.01 0.04 0.06 0.02 0.02 0.03 0.02 0.03 0.04 0.03 0.03 0.01 0.00 0.01 0.01 0.00 0.01 0.00 0.00 0.00 0.00 0.00 0.00 0.00 0.00 0.01 0.00 0.00 0.00 0.00 0.00 0.00 0.00 0.00 0.00 0.00 0.00
0.01 0.02 0.02 0.02 0.03 0.03 0.04 0.04 0.08 0.09 0.04 0.01 0.01 0.01 0.02 0.04 0.02 0.01 0.01 0.01 0.01 0.01 0.05 0.05 0.03 0.01 0.01 0.00 0.00 0.00 0.00 0.01 0.01 0.00 0.00 0.00 0.00 0.00 0.00 0.00 0.00 0.00 0.00 0.00
0.01 0.02 0.02 0.02 0.01 0.01 0.03 0.03 0.07 0.08 0.07 0.02 0.01 0.02 0.00 0.02 0.03 0.02 0.00 0.00 0.00 0.04 0.07 0.06 0.04 0.03 0.01 0.00 0.00 0.00 0.00 0.01 0.02 0.01 0.01 0.00 0.00 0.00 0.00 0.00 0.01 0.00 0.00 0.00
0.01 0.01 0.01 0.01 0.01 0.02 0.04 0.01 0.04 0.08 0.05 0.00 0.01 0.02 0.00 0.00 0.02 0.04 0.05 0.04 0.04 0.08 0.03 0.03 0.03 0.01 0.03 0.04 0.03 0.00 0.00 0.03 0.02 0.01 0.01 0.00 0.00 0.00 0.00 0.00 0.01 0.00 0.00 0.00
0.00 0.01 0.01 0.01 0.01 0.02 0.06 0.03 0.04 0.07 0.03 0.00 0.01 0.00 0.00 0.00 0.00 0.01 0.03 0.05 0.06 0.04 0.02 0.03 0.02 0.02 0.02 0.00 0.02 0.02 0.00 0.02 0.02 0.01 0.02 0.01 0.00 0.00 0.00 0.01 0.00 0.00 0.00 0.00
0.00 0.01 0.01 0.01 0.02 0.03 0.06 0.04 0.03 0.07 0.06 0.01 0.01 0.00 0.00 0.00 0.00 0.02 0.04 0.03 0.05 0.05 0.04 0.05 0.05 0.05 0.04 0.01 0.00 0.01 0.01 0.00 0.00 0.00 0.00 0.00 0.00 0.00 0.00 0.00 0.00 0.00 0.00 0.00
0.00 0.01 0.01 0.02 0.03 0.03 0.04 0.01 0.03 0.05 0.02 0.01 0.01 0.00 0.00 0.00 0.00 0.01 0.04 0.06 0.04 0.03 0.05 0.08 0.05 0.07 0.05 0.04 0.01 0.01 0.01 0.00 0.01 0.01 0.00 0.00 0.00 0.00 0.00 0.00 0.00 0.00 0.00 0.00
0.00 0.01 0.01 0.01 0.02 0.03 0.03 0.01 0.01 0.02 0.01 0.01 0.00 0.00 0.00 0.00 0.00 0.00 0.00 0.01 0.01 0.01 0.02 0.02 0.01 0.02 0.02 0.05 0.03 0.02 0.00 0.00 0.01 0.01 0.00 0.00 0.00 0.00 0.00 0.00 0.00 0.00 0.00 0.00
0.00 0.01 0.02 0.01 0.01 0.02 0.03 0.01 0.01 0.00 0.00 0.02 0.01 0.00 0.00 0.00 0.00 0.00 0.00 0.00 0.01 0.02 0.02 0.01 0.01 0.02 0.03 0.02 0.03 0.01 0.00 0.01 0.02 0.02 0.00 0.00 0.00 0.00 0.00 0.00 0.00 0.00 0.00 0.00
0.00 0.01 0.01 0.02 0.02 0.02 0.00 0.00 0.01 0.00 0.01 0.02 0.03 0.03 0.00 0.00 0.00 0.00 0.01 0.02 0.03 0.04 0.02 0.01 0.02 0.02 0.05 0.03 0.04 0.00 0.00 0.00 0.00 0.00 0.00 0.00 0.00 0.00 0.00 0.00 0.00 0.00 0.00 0.00
0.00 0.01 0.01 0.02 0.02 0.01 0.00 0.01 0.00 0.00 0.01 0.00 0.03 0.03 0.02 0.00 0.01 0.02 0.02 0.03 0.04 0.02 0.01 0.01 0.01 0.01 0.04 0.03 0.01 0.00 0.00 0.00 0.00 0.00 0.00 0.00 0.00 0.00 0.00 0.00 0.00 0.00 0.00 0.00
0.00 0.01 0.02 0.02 0.02 0.01 0.00 0.00 0.00 0.01 0.00 0.00 0.02 0.04 0.02 0.01 0.01 0.02 0.03 0.02 0.01 0.01 0.00 0.01 0.00 0.01 0.03 0.02 0.00 0.00 0.00 0.00 0.00 0.00 0.00 0.00 0.00 0.00 0.00 0.00 0.00 0.00 0.00 0.00
0.01 0.02 0.04 0.03 0.01 0.00 0.00 0.00 0.01 0.01 0.01 0.01 0.01 0.01 0.03 0.01 0.01 0.02 0.02 0.01 0.00 0.00 0.01 0.00 0.02 0.03 0.03 0.02 0.01 0.02 0.00 0.00 0.00 0.00 0.00 0.00 0.00 0.00 0.00 0.00 0.00 0.00 0.00 0.00
0.02 0.01 0.00 0.00 0.00 0.01 0.00 0.01 0.01 0.01 0.02 0.03 0.02 0.03 0.04 0.02 0.01 0.01 0.00 0.00 0.01 0.01 0.00 0.01 0.01 0.00 0.01 0.01 0.00 0.00 0.00 0.00 0.00 0.00 0.00 0.00 0.00 0.00 0.00 0.00 0.00 0.00 0.00 0.00
0.00 0.00 0.00 0.02 0.01 0.00 0.00 0.00 0.00 0.01 0.01 0.00 0.00 0.02 0.06 0.02 0.03 0.01 0.01 0.01 0.03 0.02 0.01 0.02 0.03 0.01 0.00 0.00 0.00 0.00 0.00 0.00 0.00 0.00 0.00 0.00 0.00 0.00 0.00 0.00 0.00 0.00 0.00 0.00
0.00 0.00 0.00 0.02 0.01 0.00 0.00 0.01 0.01 0.01 0.01 0.00 0.00 0.01 0.05 0.04 0.08 0.05 0.01 0.02 0.01 0.02 0.03 0.03 0.03 0.00 0.00 0.00 0.00 0.00 0.00 0.00 0.00 0.00 0.00 0.00 0.00 0.00 0.00 0.00 0.00 0.00 0.00 0.00
0.00 0.00 0.00 0.01 0.00 0.01 0.03 0.02 0.00 0.01 0.02 0.00 0.00 0.02 0.03 0.01 0.01 0.04 0.01 0.01 0.01 0.02 0.03 0.03 0.00 0.00 0.00 0.00 0.00 0.00 0.00 0.00 0.00 0.00 0.00 0.00 0.00 0.00 0.00 0.00 0.00 0.00 0.00 0.00
0.00 0.00 0.00 0.01 0.01 0.01 0.01 0.01 0.00 0.00 0.00 0.00 0.01 0.01 0.02 0.01 0.00 0.00 0.00 0.00 0.02 0.02 0.03 0.01 0.00 0.00 0.00 0.00 0.00 0.00 0.00 0.00 0.00 0.00 0.00 0.00 0.00 0.00 0.00 0.00 0.00 0.00 0.00 0.00
0.00 0.00 0.00 0.00 0.00 0.00 0.00 0.00 0.00 0.00 0.00 0.00 0.01 0.03 0.05 0.02 0.01 0.01 0.01 0.02 0.03 0.01 0.01 0.00 0.00 0.00 0.00 0.00 0.00 0.00 0.00 0.00 0.00 0.00 0.00 0.00 0.00 0.00 0.00 0.00 0.00 0.00 0.00 0.00
0.00 0.00 0.00 0.00 0.01 0.00 0.00 0.00 0.00 0.00 0.00 0.00 0.01 0.04 0.05 0.01 0.02 0.01 0.01 0.01 0.01 0.00 0.00 0.00 0.00 0.00 0.00 0.00 0.00 0.00 0.00 0.00 0.00 0.00 0.00 0.00 0.00 0.00 0.00 0.00 0.00 0.00 0.00 0.00
0.00 0.00 0.00 0.00 0.00 0.00 0.00 0.00 0.00 0.00 0.00 0.00 0.00 0.02 0.01 0.00 0.00 0.00 0.00 0.00 0.00 0.01 0.00 0.00 0.00 0.00 0.00 0.00 0.00 0.00 0.00 0.00 0.00 0.00 0.00 0.00 0.00 0.00 0.00 0.00 0.00 0.00 0.00 0.00
MSLP
1017.61 1017.45 1017.38 1017.38 1017.62 1017.44 1017.64 1017.43 1015.35 1013.23 1013.71 1014.59 1013.61 1012.59 1011.11 1009.78 1007.81 1007.11 1007.09 1006.86 1006.05 1005.14 1004.56 1003.67 1002.85 1001.81 1003.01 1002.85 1002.96 1002.48 1002.44 1001.92 1000.33 999.44 997.96 998.21 998.15 998.09 998.50 998.60 998.59 998.32 998.09 997.24
1017.13 1017.03 1017.01 1017.02 1017.22 1017.20 1017.21 1016.69 1014.79 1014.03 1014.11 1013.37 1012.61 1011.76 1010.67 1009.37 1008.26 1007.38 1007.14 1007.21 1006.80 1006.11 1005.45 1005.27 1004.22 1003.45 1004.12 1004.21 1003.93 1004.51 1004.19 1002.62 1001.33 999.63 999.08 998.77 998.69 998.38 998.01 998.44 998.69 998.35 998.18 997.71
1016.69 1016.58 1016.62 1016.64 1016.92 1016.90 1017.49 1016.71 1014.87 1013.50 1014.26 1013.30 1012.31 1011.70 1010.27 1009.07 1008.35 1007.97 1007.87 1007.49 1007.12 1006.51 1005.95 1005.60 1005.28 1004.62 1004.92 1005.50 1005.37 1005.53 1005.12 1004.09 1002.83 1001.55 1001.08 1000.34 999.34 998.80 998.71 998.77 998.90 998.56 997.76 997.24
1016.25 1016.16 1016.21 1016.30 1016.62 1016.90 1017.47 1016.66 1014.95 1013.36 1012.95 1012.87 1012.21 1011.33 1010.81 1009.54 1008.50 1008.28 1008.10 1007.93 1007.58 1007.11 1007.04 1006.42 1006.00 1005.61 1005.62 1005.60 1005.89 1005.81 1005.71 1004.99 1004.11 1002.69 1002.25 1001.62 1000.96 1000.30 999.90 999.52 999.21 998.85 998.15 997.25
1015.69 1015.68 1015.77 1015.96 1016.26 1016.70 1017.08 1016.30 1014.81 1013.53 1012.87 1012.34 1012.15 1011.11 1010.33 1009.72 1009.18 1008.34 1008.22 1008.12 1007.71 1007.38 1006.92 1006.97 1006.73 1006.13 1005.37 1005.52 1005.47 1005.53 1005.54 1005.35 1005.12 1004.07 1003.13 1002.34 1001.48 1000.85 1000.24 999.82 999.48 999.00 998.60 997.71
1014.97 1015.14 1015.34 1015.51 1015.78 1016.40 1016.36 1015.91 1015.07 1014.77 1013.27 1013.00 1012.04 1011.01 1010.33 1009.49 1009.06 1008.92 1008.65 1007.97 1008.22 1007.60 1007.13 1006.86 1006.36 1006.45 1006.52 1006.58 1006.23 1005.83 1006.18 1006.17 1005.62 1004.63 1003.82 1002.58 1001.31 1000.31 1000.00 999.71 999.48 999.23 998.48 998.04
1014.32 1014.51 1014.69 1014.90 1015.17 1015.60 1015.63 1015.58 1015.04 1014.77 1013.25 1012.76 1011.92 1010.93 1010.29 1009.93 1009.31 1008.98 1008.85 1007.91 1008.49 1008.26 1007.87 1007.35 1006.92 1006.82 1006.90 1006.92 1006.79 1006.64 1006.96 1006.89 1006.62 1005.75 1004.64 1002.90 1001.22 999.75 999.45 999.28 999.21 999.15 998.54 997.84
1013.63 1013.81 1014.09 1014.36 1014.67 1014.98 1015.18 1015.14 1015.41 1014.76 1013.50 1012.42 1011.23 1010.64 1010.30 1010.10 1009.62 1009.06 1008.70 1008.38 1008.35 1009.20 1008.26 1008.25 1007.43 1006.95 1006.88 1006.54 1006.50 1006.54 1006.92 1007.28 1007.22 1006.36 1004.93 1003.04 1001.23 1000.31 999.70 999.88 999.76 999.90 999.46 999.12
1012.93 1013.15 1013.42 1013.74 1014.09 1014.44 1014.83 1014.68 1015.12 1015.12 1014.12 1012.22 1011.14 1010.72 1010.26 1009.81 1009.37 1008.92 1008.15 1008.08 1008.06 1008.73 1009.12 1008.77 1007.57 1006.31 1005.88 1005.20 1004.99 1005.62 1006.41 1007.16 1007.59 1006.61 1005.56 1003.27 1000.89 1000.56 1000.51 1000.58 1000.40 1000.98 1000.75 1000.68
1012.08 1012.34 1012.58 1012.86 1013.28 1013.75 1014.22 1013.89 1014.37 1014.76 1013.83 1012.25 1011.67 1010.88 1010.18 1009.25 1009.29 1009.25 1008.72 1008.25 1008.26 1008.87 1009.41 1009.07 1008.00 1006.30 1005.75 1005.04 1003.94 1004.61 1005.65 1006.67 1006.95 1006.63 1005.28 1003.32 1001.82 1001.23 1001.02 1000.96 1001.88 1001.34 1001.38 1001.41
1011.10 1011.34 1011.64 1011.89 1012.21 1012.78 1013.44 1013.22 1013.71 1014.16 1013.26 1012.03 1011.37 1010.59 1010.00 1009.32 1009.30 1009.25 1008.91 1009.17 1008.75 1009.69 1009.56 1008.96 1007.72 1006.33 1005.15 1004.24 1004.23 1003.64 1004.41 1005.62 1005.86 1005.95 1004.87 1003.33 1001.33 1001.11 1001.04 1001.37 1001.26 1001.29 1001.38 1001.72
1010.01 1010.26 1010.54 1010.80 1011.16 1011.59 1012.43 1012.57 1012.84 1013.41 1013.59 1011.64 1010.71 1010.32 1009.75 1009.40 1009.09 1009.65 1009.79 1010.02 1010.31 1009.25 1009.08 1008.59 1007.72 1006.56 1005.29 1004.10 1003.36 1003.33 1004.13 1003.82 1003.93 1004.08 1003.39 1002.31 1001.64 1001.25 1000.91 1000.70 1000.73 1000.89 1001.38 1001.73
1008.79 1009.11 1009.40 1009.73 1010.07 1010.53 1011.12 1011.44 1012.07 1013.15 1013.26 1012.41 1011.32 1009.18 1009.49 1009.34 1008.97 1009.17 1010.12 1009.85 1010.11 1010.03 1010.61 1009.96 1008.97 1007.79 1006.64 1005.07 1003.70 1003.22 1003.61 1003.22 1003.93 1003.99 1002.74 1002.10 1001.64 1001.49 1000.95 1000.45 1000.40 1000.80 1001.41 1002.11
1007.63 1008.02 1008.37 1008.69 1009.00 1009.17 1009.79 1010.36 1011.06 1012.08 1012.28 1011.82 1008.95 1008.42 1008.47 1008.43 1008.40 1008.56 1009.05 1009.70 1010.56 1011.42 1010.88 1010.83 1009.75 1008.45 1006.96 1005.67 1004.82 1003.69 1003.22 1003.83 1003.08 1002.93 1001.17 1000.73 1000.50 1000.68 1000.84 1000.96 1001.02 1001.23 1002.04 1003.02
1006.53 1007.00 1007.48 1007.86 1008.28 1008.58 1009.11 1009.61 1010.30 1010.68 1011.11 1009.57 1008.88 1008.01 1007.10 1007.19 1007.72 1008.24 1008.48 1008.87 1009.68 1010.29 1010.84 1010.75 1009.96 1008.36 1007.16 1005.76 1005.03 1003.73 1002.84 1002.25 1002.18 1002.03 1001.27 1001.42 1001.20 1000.95 1001.29 1000.98 1001.15 1002.07 1003.02 1003.67
1005.54 1006.14 1006.66 1007.09 1007.68 1008.29 1008.95 1009.38 1009.79 1009.94 1010.26 1010.64 1009.33 1007.49 1007.04 1006.81 1006.91 1007.40 1007.96 1008.60 1009.23 1009.94 1010.59 1010.57 1009.52 1008.23 1008.05 1006.64 1005.06 1003.36 1003.23 1002.21 1002.16 1001.83 1001.13 1001.18 1001.37 1001.03 1001.15 1001.59 1002.11 1003.03 1003.85 1004.79
1004.63 1005.42 1006.04 1006.57 1007.37 1008.03 1008.67 1008.74 1008.48 1009.22 1010.47 1010.64 1009.58 1007.80 1006.92 1006.79 1006.72 1006.89 1007.43 1008.13 1009.05 1009.95 1010.30 1010.26 1009.53 1008.47 1008.20 1007.09 1005.38 1004.37 1004.52 1004.29 1003.16 1001.96 1001.60 1001.66 1001.88 1002.11 1002.21 1002.18 1002.86 1003.74 1004.63 1005.95
1003.88 1004.87 1005.64 1006.34 1007.19 1008.05 1008.42 1008.15 1007.95 1008.97 1009.93 1010.38 1009.39 1007.51 1007.31 1007.39 1007.30 1007.34 1007.51 1008.39 1009.16 1009.79 1009.83 1009.61 1008.82 1008.11 1008.16 1007.08 1005.30 1004.35 1003.60 1003.22 1002.75 1003.01 1003.13 1003.23 1003.27 1003.02 1003.32 1003.46 1003.44 1004.02 1004.67 1006.16
1003.50 1004.64 1005.59 1006.67 1007.20 1007.76 1007.54 1007.87 1008.42 1008.87 1009.40 1008.97 1008.39 1007.26 1007.01 1007.47 1007.22 1007.23 1007.79 1008.42 1008.94 1009.34 1009.19 1008.63 1008.59 1007.63 1006.84 1006.18 1005.70 1005.45 1005.56 1005.46 1005.30 1004.97 1004.66 1004.47 1004.75 1004.90 1005.05 1005.23 1005.17 1005.14 1005.50 1006.61
1003.46 1004.89 1006.04 1006.50 1006.79 1006.96 1007.38 1008.45 1008.32 1008.66 1008.30 1007.76 1006.90 1006.21 1006.50 1007.11 1007.12 1007.41 1007.83 1008.24 1008.21 1008.06 1007.84 1007.42 1007.53 1007.00 1006.65 1007.40 1007.55 1007.43 1007.25 1007.18 1006.99 1006.71 1006.53 1006.74 1006.88 1006.90 1006.91 1006.91 1006.87 1006.87 1006.90 1008.04
1003.32 1004.43 1005.00 1005.50 1006.09 1007.03 1007.79 1007.79 1007.71 1007.49 1007.13 1006.24 1005.28 1005.15 1005.80 1006.34 1006.42 1006.86 1007.30 1007.24 1007.13 1006.68 1006.28 1006.63 1006.85 1007.24 1008.68 1008.91 1009.00 1009.11 1009.02 1008.88 1008.76 1008.70 1008.69 1008.87 1009.13 1009.07 1008.92 1008.77 1008.90 1008.72 1008.69 1009.77
1002.01 1003.13 1004.38 1005.50 1006.31 1006.88 1006.91 1006.65 1006.61 1006.05 1004.78 1004.06 1003.84 1003.98 1004.50 1005.34 1005.58 1006.25 1006.72 1006.45 1006.68 1005.76 1005.46 1006.24 1007.11 1009.56 1010.24 1010.32 1010.60 1010.76 1010.78 1010.80 1010.58 1010.42 1010.41 1010.60 1010.82 1010.97 1010.74 1010.74 1010.86 1011.10 1011.37 1011.93
1002.27 1002.94 1004.27 1004.82 1005.80 1005.79 1005.52 1005.48 1005.32 1004.81 1004.02 1003.93 1003.68 1004.01 1005.06 1005.50 1005.59 1005.67 1006.04 1006.16 1005.88 1005.89 1005.93 1007.14 1009.66 1011.04 1011.54 1011.92 1012.22 1012.29 1012.24 1012.30 1012.11 1012.01 1012.06 1012.13 1012.31 1012.43 1012.28 1012.36 1012.59 1012.84 1013.14 1013.59
1002.21 1003.25 1004.41 1004.82 1005.22 1005.54 1005.78 1005.76 1005.32 1005.58 1004.90 1004.55 1004.36 1004.58 1004.94 1005.77 1005.99 1006.12 1006.33 1005.96 1005.97 1006.39 1007.18 1009.44 1011.47 1012.34 1012.86 1013.21 1013.40 1013.33 1013.27 1013.20 1013.12 1013.18 1013.32 1013.52 1013.60 1013.81 1013.95 1013.98 1014.08 1014.27 1014.62 1015.12
1003.22 1003.91 1005.19 1006.01 1006.62 1006.81 1006.97 1006.76 1006.54 1006.80 1006.24 1005.62 1005.00 1004.89 1005.20 1005.84 1006.27 1006.47 1006.51 1006.65 1006.64 1008.02 1009.94 1011.47 1012.77 1013.43 1013.79 1013.98 1014.04 1014.09 1014.08 1014.02 1013.96 1014.11 1014.36 1014.76 1014.96 1015.13 1015.35 1015.50 1015.60 1015.83 1016.08 1016.46
1005.51 1006.55 1006.83 1007.12 1007.14 1007.60 1007.77 1007.69 1007.68 1007.82 1007.31 1006.65 1006.06 1005.63 1005.73 1006.12 1006.35 1006.74 1007.47 1007.65 1009.20 1010.95 1012.25 1013.42 1014.08 1014.58 1014.83 1014.92 1014.96 1015.07 1015.17 1015.17 1015.14 1015.26 1015.46 1015.73 1015.94 1016.14 1016.39 1016.58 1016.82 1017.10 1017.33 1017.71
1006.91 1008.29 1008.55 1008.27 1008.50 1008.99 1009.09 1008.97 1008.94 1008.55 1007.90 1006.96 1006.89 1006.47 1006.86 1007.30 1007.86 1009.14 1010.22 1011.14 1012.23 1012.94 1013.77 1014.53 1015.12 1015.39 1015.54 1015.53 1015.59 1015.67 1015.75 1015.87 1015.97 1016.17 1016.37 1016.57 1016.86 1017.09 1017.34 1017.56 1018.08 1018.36 1018.70 1019.06
Thickness
5346 5343 5337 5330 5324 5325 5325 5329 5352 5377 5376 5368 5389 5398 5423 5439 5458 5468 5469 5475 5484 5497 5507 5519 5527 5546 5531 5543 5551 5555 5559 5562 5576 5584 5616 5615 5610 5612 5614 5601 5608 5627 5625 5632
5339 5338 5334 5331 5326 5326 5329 5334 5358 5367 5368 5375 5390 5407 5420 5435 5446 5456 5459 5462 5472 5486 5494 5493 5512 5520 5520 5528 5536 5527 5540 5558 5561 5580 5595 5606 5599 5612 5621 5618 5618 5611 5602 5616
5331 5332 5331 5329 5326 5326 5325 5333 5350 5373 5361 5379 5391 5388 5414 5429 5441 5444 5447 5454 5462 5471 5478 5490 5492 5503 5507 5512 5518 5517 5526 5539 5552 5560 5561 5575 5585 5600 5606 5606 5592 5604 5615 5630
5325 5326 5326 5326 5323 5322 5320 5328 5348 5371 5370 5375 5387 5400 5400 5413 5428 5437 5440 5442 5449 5457 5455 5465 5474 5488 5494 5506 5502 5512 5516 5520 5538 5557 5561 5565 5569 5577 5585 5587 5596 5590 5609 5618
5322 5322 5322 5323 5321 5318 5317 5329 5346 5365 5375 5384 5378 5394 5403 5410 5416 5432 5431 5431 5441 5448 5450 5455 5461 5478 5492 5492 5505 5510 5517 5514 5525 5535 5550 5556 5557 5569 5577 5584 5589 5595 5600 5607
5321 5320 5320 5320 5319 5316 5318 5328 5340 5341 5361 5357 5376 5390 5399 5412 5421 5420 5423 5434 5429 5439 5451 5456 5466 5467 5473 5480 5489 5497 5501 5507 5518 5524 5540 5549 5550 5567 5572 5578 5585 5587 5584 5604
5321 5320 5319 5319 5319 5318 5322 5326 5334 5334 5352 5362 5369 5386 5397 5400 5409 5412 5417 5431 5421 5432 5441 5450 5460 5465 5470 5476 5481 5490 5489 5496 5504 5511 5523 5524 5557 5580 5580 5578 5583 5587 5594 5605
5320 5319 5318 5319 5319 5319 5321 5322 5321 5328 5340 5361 5377 5386 5390 5394 5402 5408 5414 5422 5428 5421 5436 5434 5445 5455 5462 5473 5480 5485 5491 5490 5489 5501 5516 5536 5551 5563 5568 5564 5567 5575 5578 5586
5319 5318 5318 5318 5318 5319 5318 5321 5318 5317 5327 5350 5372 5375 5383 5389 5398 5407 5421 5426 5429 5425 5422 5421 5437 5457 5476 5485 5491 5492 5490 5488 5485 5498 5499 5520 5550 5556 5562 5560 5550 5557 5562 5564
5319 5319 5319 5319 5318 5318 5318 5324 5320 5317 5326 5348 5355 5363 5375 5396 5396 5395 5409 5419 5423 5423 5410 5418 5431 5461 5475 5480 5499 5489 5484 5478 5474 5483 5496 5520 5540 5545 5552 5535 5532 5549 5552 5555
5319 5321 5321 5322 5323 5322 5321 5325 5322 5320 5330 5343 5352 5363 5371 5386 5391 5393 5409 5407 5420 5404 5408 5426 5445 5461 5478 5489 5487 5499 5492 5475 5474 5482 5489 5501 5542 5540 5532 5535 5543 5545 5546 5545
5324 5326 5327 5328 5329 5329 5325 5326 5326 5324 5322 5346 5355 5362 5372 5380 5388 5388 5391 5390 5382 5424 5429 5441 5452 5461 5477 5493 5493 5502 5483 5501 5499 5501 5506 5523 5531 5533 5538 5542 5542 5543 5541 5540
5333 5333 5333 5334 5335 5334 5333 5334 5332 5324 5323 5331 5345 5369 5370 5376 5386 5391 5375 5391 5391 5403 5398 5409 5423 5432 5453 5473 5491 5499 5495 5504 5488 5489 5510 5518 5522 5526 5529 5539 5540 5541 5539 5534
5340 5339 5339 5339 5340 5342 5340 5339 5338 5331 5330 5332 5366 5373 5376 5382 5387 5393 5393 5389 5383 5380 5393 5391 5407 5422 5449 5456 5473 5484 5494 5489 5497 5497 5523 5526 5529 5527 5527 5526 5529 5531 5527 5516
5345 5344 5343 5343 5343 5344 5344 5344 5342 5342 5342 5358 5365 5376 5388 5390 5390 5392 5396 5398 5396 5396 5388 5390 5401 5429 5445 5462 5468 5480 5496 5501 5498 5498 5514 5512 5516 5519 5518 5522 5523 5518 5510 5506
5348 5346 5346 5346 5345 5343 5343 5341 5345 5347 5348 5343 5358 5383 5387 5394 5398 5398 5398 5399 5398 5395 5386 5390 5410 5433 5428 5441 5460 5487 5487 5500 5503 5502 5513 5512 5513 5517 5518 5515 5513 5505 5499 5489
5350 5348 5347 5346 5343 5343 5343 5355 5360 5353 5345 5342 5360 5379 5387 5392 5399 5403 5403 5402 5394 5388 5388 5390 5405 5424 5424 5432 5451 5472 5467 5471 5487 5499 5504 5505 5505 5503 5506 5509 5504 5496 5488 5472
5352 5347 5346 5345 5342 5340 5343 5353 5359 5354 5348 5346 5360 5385 5385 5386 5384 5390 5398 5387 5385 5384 5391 5398 5413 5424 5419 5425 5462 5472 5478 5483 5487 5485 5489 5491 5491 5496 5494 5496 5499 5494 5493 5476
5351 5346 5342 5337 5337 5338 5349 5353 5353 5353 5354 5360 5367 5387 5394 5383 5385 5389 5391 5387 5387 5386 5389 5403 5408 5421 5432 5451 5456 5456 5453 5454 5458 5465 5473 5478 5477 5477 5476 5476 5479 5483 5484 5474
5347 5340 5333 5335 5340 5346 5349 5346 5351 5351 5357 5368 5378 5398 5392 5389 5388 5388 5388 5388 5397 5402 5405 5419 5416 5430 5445 5424 5424 5427 5431 5434 5439 5442 5447 5448 5451 5453 5454 5456 5460 5462 5468 5454
5346 5341 5344 5346 5345 5343 5340 5350 5356 5358 5365 5382 5400 5406 5396 5397 5399 5394 5394 5399 5406 5416 5426 5425 5429 5431 5400 5405 5405 5406 5410 5415 5420 5423 5426 5426 5423 5426 5428 5433 5431 5435 5437 5427
5361 5357 5352 5347 5342 5344 5356 5363 5366 5376 5396 5408 5411 5412 5412 5407 5411 5401 5401 5411 5404 5423 5433 5430 5436 5386 5382 5388 5386 5387 5391 5392 5397 5401 5404 5402 5401 5401 5405 5405 5404 5402 5400 5396
5360 5361 5354 5357 5352 5367 5374 5379 5388 5395 5404 5403 5407 5403 5395 5401 5406 5411 5408 5405 5415 5418 5427 5422 5385 5370 5370 5369 5369 5370 5374 5374 5378 5381 5382 5383 5382 5381 5385 5384 5382 5380 5377 5373
5365 5362 5357 5367 5372 5372 5369 5373 5387 5377 5392 5398 5401 5398 5401 5389 5393 5395 5397 5412 5419 5422 5429 5390 5362 5357 5357 5356 5355 5356 5358 5360 5363 5363 5364 5363 5364 5362 5360 5360 5359 5357 5355 5350
5357 5365 5356 5351 5346 5349 5352 5359 5366 5359 5369 5379 5395 5401 5399 5390 5387 5390 5400 5405 5417 5394 5375 5362 5348 5346 5345 5343 5343 5343 5343 5346 5348 5347 5344 5340 5340 5339 5337 5335 5335 5332 5329 5325
5338 5333 5343 5344 5352 5349 5350 5353 5356 5351 5356 5366 5380 5390 5393 5390 5396 5397 5387 5400 5375 5357 5346 5337 5334 5330 5329 5329 5330 5329 5328 5328 5329 5328 5327 5325 5323 5321 5319 5317 5314 5310 5308 5306
5333 5321 5325 5336 5338 5334 5336 5341 5342 5346 5356 5381 5379 5388 5378 5383 5381 5366 5354 5347 5340 5335 5329 5324 5320 5318 5317 5318 5317 5317 5316 5315 5314 5312 5310 5309 5306 5304 5302 5298 5292 5289 5286 5283